This is the latest recevied weather packets stored in our database for station/object N8XHB. If no packets are shown the sender has not sent any weather packets the latest 10 day(s).
| Time | Temp. | Humidity | Pressure | Rain* | Wind** | Luminosity | Snow |
|---|---|---|---|---|---|---|---|
| 1777831756 | 16.11° C | 43% | 1010.8 hPa | 0 mm | - | 863 W/m² | - |
| 1777831454 | 16.11° C | 43% | 1010.8 hPa | 0 mm | - | 864 W/m² | - |
| 1777831150 | 16.11° C | 43% | 1010.6 hPa | 0 mm | - | 871 W/m² | - |
| 1777830849 | 16.11° C | 42% | 1010.7 hPa | 0 mm | - | 866 W/m² | - |
| 1777830544 | 16.67° C | 41% | 1011.3 hPa | 0 mm | - | 872 W/m² | - |
| 1777830243 | 16.67° C | 43% | 1011 hPa | 0 mm | - | 872 W/m² | - |
| 1777829943 | 16.11° C | 45% | 1011.1 hPa | 0 mm | - | 875 W/m² | - |
| 1777829639 | 16.11° C | 44% | 1011.3 hPa | 0 mm | - | 878 W/m² | - |
| 1777829336 | 16.11° C | 45% | 1011.2 hPa | 0 mm | - | 894 W/m² | - |
| 1777829034 | 16.11° C | 44% | 1011.3 hPa | 0 mm | - | 883 W/m² | - |
| 1777828729 | 16.11° C | 44% | 1011.2 hPa | 0 mm | - | 881 W/m² | - |
| 1777828426 | 16.11° C | 44% | 1011.4 hPa | 0 mm | - | 889 W/m² | - |
| 1777828124 | 16.11° C | 48% | 1011.4 hPa | 0 mm | - | 896 W/m² | - |
| 1777827820 | 15.56° C | 45% | 1011.5 hPa | 0 mm | - | 877 W/m² | - |
| 1777827517 | 15° C | 47% | 1011.7 hPa | 0 mm | - | 904 W/m² | - |
| 1777827215 | 15° C | 46% | 1011.6 hPa | 0 mm | - | 775 W/m² | - |
| 1777826911 | 14.44° C | 47% | 1011.7 hPa | 0 mm | - | 616 W/m² | - |
| 1777826609 | 14.44° C | 47% | 1011.7 hPa | 0 mm | - | 357 W/m² | - |
| 1777826304 | 13.89° C | 49% | 1011.8 hPa | 0 mm | - | 726 W/m² | - |
| 1777826002 | 13.33° C | 48% | 1011.8 hPa | 0 mm | - | 425 W/m² | - |
| 1777825699 | 13.33° C | 47% | 1012 hPa | 0 mm | - | 265 W/m² | - |
| 1777825397 | 12.78° C | 48% | 1012 hPa | 0 mm | - | 308 W/m² | - |
| 1777825094 | 13.33° C | 46% | 1012 hPa | 0 mm | - | 299 W/m² | - |
| 1777824790 | 13.33° C | 47% | 1012.2 hPa | 0 mm | - | 350 W/m² | - |
| 1777824487 | 13.33° C | 47% | 1012 hPa | 0 mm | - | 357 W/m² | - |
* Rain latest hour (hover to see other rain measurements)
** Current wind speed in m/s (hover to see current wind gust speed)